Flag for Russia Weather past 2 weeks in Novorossiysk, Russia

Now
91 °F

Passing clouds.


Feels Like: 96 °F
Forecast: 71 / 99 °F
Wind: 13 mph from Northeast

Location: Anapa / Vitiazevo

Current Time: Jul 30, 2015 at 4:16:04 PM

Latest Report: Jul 30, 2015 at 3:30 PM


Visibility: N/A

Pressure: 29.83 "Hg

Humidity: 46%

Dew point: 68 °F

Location of NovorossiyskLocation

Historic Weather in Novorossiysk — Graph

°F

Novorossiysk temperature yesterday

Maximum temperature yesterday: 84 °F (at 1:30 PM)
Minimum temperature yesterday: 68 °F (at 12:00 AM)
Average temperature yesterday: 77 °F

Past Weeks' High & Low Weather Summary

 TemperatureHumidityPressure
High91 °F (Jul 24, 2:00 PM)100% (Jul 18, 6:00 AM)30.07 "Hg (Jul 18, 6:00 AM)
Low55 °F (Jul 19, 4:00 AM)32% (Jul 24, 4:00 PM)29.65 "Hg (Jul 26, 2:00 AM)
Average75 °F71%29.89 "Hg
* Reported Jul 15 3:00 PM — Jul 30 3:00 PM, Novorossiysk, Weather by CustomWeather, © 2015

Note: Actual official high and low records may vary slightly from our data, if they occured in-between our weather recording intervals... More about our weather records

Advertising

Novorossiysk weather history for previous 24 hours

 ConditionsComfort  
Time TempWeatherWind HumidityBarometerVisibility
3:00 PM
Thu, Jul 30
90 °FPassing clouds.10 mph52%29.83 "HgN/A
2:30 PM91 °FSunny.8 mph46%29.83 "Hg10 mi
2:00 PM91 °FPassing clouds.6 mph44%29.83 "HgN/A
1:30 PM91 °FPassing clouds.8 mph49%29.83 "HgN/A
1:00 PM90 °FPassing clouds.8 mph49%29.86 "HgN/A
12:30 PM90 °FPassing clouds.6 mph52%29.86 "HgN/A
12:00 PM88 °FPassing clouds.8 mph55%29.86 "HgN/A
11:30 AM88 °FPassing clouds.8 mph52%29.86 "HgN/A
11:00 AM86 °FPassing clouds.10 mph59%29.86 "HgN/A
10:30 AM86 °FSunny.13 mph59%29.86 "Hg10 mi
10:00 AM84 °FSunny.15 mph58%29.89 "Hg10 mi
9:30 AM82 °FSunny.10 mph70%29.89 "Hg10 mi
9:00 AM82 °FSunny.13 mph70%29.89 "Hg10 mi
8:30 AM81 °FSunny.10 mph74%29.89 "Hg10 mi
8:00 AM79 °FClear.13 mph79%29.89 "Hg5 mi
7:30 AM75 °FClear.10 mph94%29.89 "Hg5 mi
6:30 AM72 °FFog.3 mph100%29.89 "Hg3 mi
6:00 AM70 °FFog.1 mph100%29.89 "Hg2 mi
5:30 AM70 °FFog.1 mph100%29.89 "Hg1 mi
5:00 AM70 °FMild.1 mph100%29.86 "Hg1 mi
4:00 AM72 °FMild.3 mph94%29.86 "Hg0 mi
3:00 AM70 °FMild.3 mph94%29.89 "Hg0 mi
2:00 AM66 °FFog.3 mph100%29.89 "Hg0 mi
1:00 AM68 °FMild.1 mph100%29.89 "Hg1 mi
12:00 AM70 °FMild.3 mph94%29.89 "Hg1 mi
11:30 PM
Wed, Jul 29
70 °FFog.3 mph94%29.89 "Hg2 mi
11:00 PM70 °FFog.3 mph94%29.89 "Hg2 mi
10:30 PM70 °FFog.3 mph94%29.89 "Hg2 mi
10:00 PM70 °FFog.3 mph94%29.89 "Hg3 mi
9:30 PM72 °FFog.3 mph94%29.89 "Hg3 mi
9:00 PM72 °FPassing clouds.3 mph94%29.89 "Hg4 mi
8:30 PM75 °FPassing clouds.1 mph89%29.86 "Hg6 mi
8:00 PM77 °FPassing clouds.6 mph89%29.86 "HgN/A
7:30 PM79 °FPassing clouds.6 mph84%29.86 "HgN/A
7:00 PM79 °FPassing clouds.6 mph84%29.86 "HgN/A
6:30 PM81 °FPassing clouds.6 mph79%29.86 "HgN/A
6:00 PM81 °FPassing clouds.8 mph79%29.86 "HgN/A
5:30 PM82 °FPassing clouds.8 mph74%29.86 "HgN/A
5:00 PM82 °FScattered clouds.10 mph74%29.86 "HgN/A
4:30 PM82 °FScattered clouds.13 mph74%29.86 "HgN/A
4:00 PM82 °FScattered clouds.13 mph74%29.86 "HgN/A
Weather by CustomWeather, © 2015

See weather overviewHow to use our weather pages